Location: Newark
(48.3831°N, 4.1956°E)
Time: 05:34:44
(UTC+00:00)

Envisat - Pass Details

Date: 15 November 2019
Orbit: 764 x 766 km, 98.1° (Epoch: 12 December)

Event Time Altitude Azimuth Distance (km) Brightness Sun altitude
Rises 18:04:24 0° 180° (S) 3,220 6.3 -19.7°
Reaches altitude 10° 18:06:46 10° 186° (S) 2,299 5.6 -20.1°
Maximum altitude 18:11:40 49° 261° (W) 981 3.9 -20.9°
Drops below altitude 10° 18:16:37 10° 336° (NNW) 2,315 5.7 -21.8°
Sets 18:19:01 0° 342° (NNW) 3,245 6.4 -22.2°
